EW2373 Weather Reports


time (UTC)temp
C
wind
direction
speed
KPH
gust
KPH
rain 1hr
cm
rain 24hr
cm
rain mn
cm
humidity
%
barometer
mb
20260905224541 35 339 0.0 0.0 0.00 0.00 0.00 47 1010.9
20260905223036 36 42 0.0 0.0 0.00 0.00 0.00 45 1010.8
20260905221532 36 45 0.0 0.0 0.00 0.00 0.00 45 1010.9
20260905220030 36 346 0.0 0.0 0.00 0.00 0.00 44 1010.8
20260905214522 36 277 0.0 0.0 0.00 0.00 0.00 43 1010.9
20260905213018 36 325 0.0 0.0 0.00 0.00 0.00 43 1011.0
20260905211539 36 49 0.0 0.0 0.00 0.00 0.00 42 1011.0
20260905210010 36 247 0.0 0.0 0.00 0.00 0.00 41 1011.2
20260905204507 35 262 0.0 0.0 0.00 0.00 0.00 41 1011.5
20260905203003 33 288 0.0 0.0 0.00 0.00 0.00 42 1011.8
20260905201606 32 226 0.0 0.0 0.00 0.00 0.00 46 1011.9
20260905200115 31 340 0.0 0.0 0.00 0.00 0.00 51 1012.1
20260905194549 33 272 0.0 0.0 0.00 0.00 0.00 49 1012.2
20260905193045 34 323 0.0 0.0 0.00 0.00 0.00 47 1012.0
20260905191540 36 332 0.0 0.0 0.00 0.00 0.00 43 1012.0
20260905190038 37 328 0.0 0.0 0.00 0.00 0.00 41 1012.1
20260905184532 37 285 0.0 0.0 0.00 0.00 0.00 40 1012.1
20260905183032 37 293 0.0 0.0 0.00 0.00 0.00 40 1012.4
20260905181523 36 340 0.0 0.0 0.00 0.00 0.00 41 1012.4
20260905180018 36 354 0.0 0.0 0.00 0.00 0.00 41 1012.6
20260905174513 37 291 0.0 0.0 0.00 0.00 0.00 40 1012.7
20260905173022 36 246 0.0 0.0 0.00 0.00 0.00 42 1012.7
20260905171505 36 360 0.0 0.0 0.00 0.00 0.00 41 1013.0
20260905170116 36 257 0.0 0.0 0.00 0.00 0.00 41 1013.3
20260905170001 36 233 0.0 0.0 0.00 0.00 0.00 41 1013.2
20260905164556 36 250 0.0 0.0 0.00 0.00 0.00 41 1013.3
20260905163052 36 274 0.0 0.0 0.00 0.00 0.00 41 1013.4
20260905161547 35 354 0.0 0.0 0.00 0.00 0.00 40 1013.4
20260905160042 35 10 0.0 0.0 0.00 0.00 0.00 39 1013.5
20260905154537 35 108 0.0 0.0 0.00 0.00 0.00 38 1013.7
20260905153033 35 335 0.0 0.0 0.00 0.00 0.00 36 1013.7
20260905151529 34 259 0.0 0.0 0.00 0.00 0.00 35 1013.9
20260905150025 33 321 0.0 0.0 0.00 0.00 0.00 32 1013.7
20260905144520 33 312 0.0 0.0 0.00 0.00 0.00 29 1013.6
20260905143015 32 262 0.0 0.0 0.00 0.00 0.00 26 1013.7
20260905141522 32 294 0.0 0.0 0.00 0.00 0.00 20 1013.8
20260905140007 31 322 0.0 0.0 0.00 0.00 0.00 16 1014.0
20260905134501 30 245 0.0 0.0 0.00 0.00 0.00 9 1014.1
20260905133058 29 280 0.0 0.0 0.00 0.00 0.00 1 1014.0
20260905131552 28 262 0.0 0.0 0.00 0.00 0.00 1 1014.1
20260905130048 27 251 0.0 0.0 0.00 0.00 0.00 1 1014.0
20260905124543 26 224 0.0 0.0 0.00 0.00 0.00 1014.0
20260905123038 -17 224 0.0 0.0 0.00 0.00 0.00 1014.0
20260905121535 -17 0.0 0.0 0.00 0.00 0.00 1014.0
20260905120030 -17 0.0 0.0 0.00 0.00 0.00 1013.8
20260905114525 -17 0.0 0.0 0.00 0.00 0.00 1013.7
20260905113022 -17 0.0 0.0 0.00 0.00 0.00 1013.6
20260905111518 -17 0.0 0.0 0.00 0.00 0.00 1013.6
20260905110015 -17 0.0 0.0 0.00 0.00 0.00 1013.4
20260905104511 -17 0.0 0.0 0.00 0.00 0.00 1013.5
20260905103006 -17 0.0 0.0 0.00 0.00 0.00 1013.4
20260905101507 -17 225 0.0 0.0 0.00 0.00 0.00 1013.5
20260905100002 -17 224 0.0 0.0 0.00 0.00 0.00 1013.5
20260905094558 -17 224 0.0 0.0 0.00 0.00 0.00 1013.4
20260905093053 -17 224 0.0 0.0 0.00 0.00 0.00 1013.4
20260905091601 -17 224 0.0 0.0 0.00 0.00 0.00 1013.2
20260905090044 -17 224 0.0 0.0 0.00 0.00 0.00 1013.1
20260905084539 23 224 0.0 0.0 0.00 0.00 0.00 1 1013.1
20260905083035 23 224 0.0 0.0 0.00 0.00 0.00 1 1013.1
20260905081533 23 224 0.0 0.0 0.00 0.00 0.00 1 1013.2
20260905080026 23 224 0.0 0.0 0.00 0.00 0.00 1 1013.4
20260905074530 23 224 0.0 0.0 0.00 0.00 0.00 1 1013.4
20260905073017 23 224 0.0 0.0 0.00 0.00 0.00 1 1013.5
20260905071518 24 224 0.0 0.0 0.00 0.00 0.00 1 1013.4
20260905070008 25 224 0.0 0.0 0.00 0.00 0.00 1 1013.4
20260905064504 25 224 0.0 0.0 0.00 0.00 0.00 1 1013.4
20260905063102 25 224 0.0 0.0 0.00 0.00 0.00 1 1013.4
20260905061556 25 229 0.0 0.0 0.00 0.00 0.00 1 1013.5
20260905060050 24 221 0.0 0.0 0.00 0.00 0.00 1 1013.6
20260905054552 24 249 0.0 0.0 0.00 0.00 0.00 1 1013.6
20260905053041 24 249 0.0 0.0 0.00 0.00 0.00 1 1013.6
20260905051537 25 248 0.0 0.0 0.00 0.00 0.00 1 1013.6
20260905050033 25 249 0.0 0.0 0.00 0.00 0.00 1 1013.6
20260905044529 25 249 0.0 0.0 0.00 0.00 0.00 1 1013.7
20260905043027 25 249 0.0 0.0 0.00 0.00 0.00 1 1013.9
20260905041523 25 249 0.0 0.0 0.00 0.00 0.00 3 1013.9
20260905040030 26 249 0.0 0.0 0.00 0.00 0.00 5 1013.8
20260905034524 26 249 0.0 0.0 0.00 0.00 0.00 10 1013.8
20260905033010 26 248 0.0 0.0 0.00 0.00 0.00 14 1013.8
20260905031506 26 249 0.0 0.0 0.00 0.00 0.00 19 1013.9
20260905030105 26 249 0.0 0.0 0.00 0.00 0.00 21 1013.7
20260905024602 27 249 0.0 0.0 0.00 0.00 0.00 25 1013.6
20260905023052 27 249 0.0 0.0 0.00 0.00 0.00 29 1013.5
20260905021548 27 249 0.0 0.0 0.00 0.00 0.00 35 1013.3
20260905020043 28 249 0.0 0.0 0.00 0.00 0.00 39 1013.3
20260905014539 28 249 0.0 0.0 0.00 0.00 0.00 42 1013.2
20260905013038 28 249 0.0 0.0 0.00 0.00 0.00 45 1013.1
20260905011529 -17 249 0.0 0.0 0.00 0.00 0.00 1013.0
20260905010028 -17 249 0.0 0.0 0.00 0.00 0.00 1012.9
20260905004520 31 249 0.0 0.0 0.00 0.00 0.00 53 1012.7
20260905003015 32 249 0.0 0.0 0.00 0.00 0.00 53 1012.6
20260905001511 33 249 0.0 0.0 0.00 0.00 0.00 49 1012.6
20260905000006 35 249 0.0 0.0 0.00 0.00 0.00 46 1012.5
20260904234502 36 240 0.0 0.0 0.00 0.00 0.00 42 1012.5
20260904233057 36 240 0.0 0.0 0.00 0.00 0.00 42 1012.4
20260904231553 36 255 0.0 0.0 0.00 0.00 0.00 41 1012.3
20260904230108 36 263 0.0 0.0 0.00 0.00 0.00 41 1012.4